Home   Weather   33°51'N, 118°14'W   Past weeks
Flag for USA

Past Weather in 33°51'N, 118°14'W, USA — Yesterday and Last 2 Weeks

Now
64 °F

Overcast.


Feels Like: 64 °F
Forecast: 73 / 58 °F
Wind: No wind

Location: Los Angeles / USC Campus Downtown

Current Time: Oct 14, 2019 at 3:27:49 am

Latest Report: Oct 14, 2019 at 2:52 am


Visibility: 10 mi

Pressure: 29.89 "Hg

Humidity: 75%

Dew Point: 56 °F

Location of 33°51'N, 118°14'WLocation

Past Weather in 33°51'N, 118°14'W — Graph

°F

33°51'N, 118°14'W Temperature Yesterday

Maximum temperature yesterday: 77 °F (at 12:52 pm)
Minimum temperature yesterday: 57 °F (at 6:52 am)
Average temperature yesterday: 67 °F

High & Low Weather Summary for the Past Weeks

 TemperatureHumidityPressure
High89 °F (Oct 11, 2:52 pm)84% (Oct 8, 11:52 pm)30.03 "Hg (Oct 8, 11:52 pm)
Low57 °F (Sep 30, 4:52 am)4% (Oct 11, 12:52 pm)29.78 "Hg (Oct 9, 4:52 pm)
Average69 °F56%29.89 "Hg
* Reported Sep 29 1:36 am — Oct 14 1:59 am, 33°51'N, 118°14'W. Weather by CustomWeather, © 2019

Note: Actual official high and low records may vary slightly from our data, if they occured in-between our weather recording intervals... More about our weather records

Advertising

33°51'N, 118°14'W Weather History for the Previous 24 Hours

Scroll right to see more
 ConditionsComfort  
Time TempWeatherWind HumidityBarometerVisibility
1:59 am
Mon, Oct 14
63 °FPassing clouds.No wind78%29.90 "Hg8 mi
12:52 am63 °FPassing clouds.No wind81%29.88 "Hg9 mi
11:52 pm
Sun, Oct 13
64 °FPassing clouds.No wind81%29.88 "Hg9 mi
11:14 pm64 °FPassing clouds.No wind81%29.89 "Hg10 mi
10:52 pm64 °FClear.No wind78%29.88 "Hg10 mi
9:52 pm64 °FClear.No wind78%29.87 "Hg10 mi
8:52 pm65 °FClear.No wind76%29.86 "Hg10 mi
7:52 pm66 °FClear.No wind73%29.85 "Hg10 mi
6:52 pm67 °FClear.5 mph71%29.84 "Hg10 mi
5:52 pm70 °FSunny.5 mph57%29.82 "Hg10 mi
4:52 pm73 °FSunny.5 mph51%29.82 "Hg10 mi
3:52 pm74 °FSunny.7 mph52%29.82 "Hg10 mi
2:52 pm75 °FSunny.5 mph50%29.81 "Hg10 mi
1:52 pm76 °FSunny.3 mph50%29.82 "Hg10 mi
12:52 pm77 °FSunny.3 mph52%29.84 "Hg10 mi
11:52 am76 °FSunny.No wind40%29.85 "Hg9 mi
10:52 am75 °FSunny.No wind48%29.87 "Hg10 mi
9:52 am70 °FSunny.3 mph59%29.87 "Hg10 mi
8:52 am66 °FSunny.No wind54%29.87 "Hg9 mi
7:52 am60 °FSunny.No wind60%29.85 "Hg10 mi
6:52 am57 °FClear.No wind67%29.83 "Hg10 mi
5:52 am58 °FClear.No wind65%29.82 "Hg10 mi
4:52 am58 °FClear.No wind72%29.82 "Hg9 mi
3:52 am59 °FClear.No wind72%29.83 "Hg9 mi
Weather by CustomWeather, © 2019

See weather overview